Flag for Germany Weather past 2 weeks in Augsburg, Bavaria, Germany

Now
34 °F

Clear.


Feels Like: 34 °F
Forecast: 47 / 52 °F
Wind: 1 mph from South

Location: Augsburg

Current Time: Mar 28, 2015 at 5:42:07 AM

Latest Report: Mar 28, 2015 at 3:00 AM


Visibility: 19 mi

Pressure: 30.29 "Hg

Humidity: 84%

Dew point: 29 °F

Location of AugsburgLocation

Historic Weather in Augsburg — Graph

°F

Augsburg temperature yesterday

Maximum temperature yesterday: 48 °F (at 2:00 PM)
Minimum temperature yesterday: 40 °F (at 2:00 AM)
Average temperature yesterday: 43 °F

Past Weeks' High & Low Weather Summary

 TemperatureHumidityPressure
High61 °F (Mar 17, 2:00 PM)100% (Mar 24, 1:00 AM)30.32 "Hg (Mar 24, 1:00 AM)
Low26 °F (Mar 19, 7:00 AM)34% (Mar 17, 4:00 PM)29.54 "Hg (Mar 25, 3:00 PM)
Average42 °F75%30.09 "Hg
* Reported Mar 13 3:00 AM — Mar 28 3:00 AM, Augsburg, Weather by CustomWeather, © 2015

Note: Actual official high and low records may vary slightly from our data, if they occured in-between our weather recording intervals... More about our weather records

Advertising

Augsburg weather history for previous 24 hours

 ConditionsComfort  
Time TempWeatherWind HumidityBarometerVisibility
3:00 AM
Sat, Mar 28
34 °FClear.1 mph84%30.29 "Hg19 mi
2:00 AM36 °FPassing clouds.1 mph82%30.28 "Hg18 mi
1:00 AM38 °FOvercast.2 mph79%30.28 "Hg19 mi
12:00 AM41 °FOvercast.3 mph72%30.26 "Hg22 mi
11:00 PM
Fri, Mar 27
42 °FOvercast.3 mph69%30.25 "Hg19 mi
9:00 PM41 °FOvercast.2 mph74%30.23 "Hg19 mi
8:00 PM43 °FOvercast.2 mph69%30.21 "Hg22 mi
7:00 PM44 °FOvercast.2 mph66%30.19 "Hg28 mi
6:00 PM45 °FOvercast.6 mph59%30.16 "Hg28 mi
5:00 PM46 °FOvercast.5 mph59%30.13 "Hg28 mi
3:00 PM46 °FOvercast.9 mph54%30.09 "Hg31 mi
2:00 PM48 °FOvercast.9 mph55%30.08 "Hg22 mi
1:00 PM46 °FOvercast.9 mph59%30.07 "Hg25 mi
12:00 PM45 °FOvercast.5 mph71%30.07 "Hg22 mi
11:00 AM46 °FScattered clouds.8 mph66%30.06 "Hg18 mi
9:00 AM41 °FLow clouds.5 mph90%30.05 "Hg12 mi
8:00 AM40 °FLight rain. Low clouds.3 mph95%30.04 "Hg3 mi
7:00 AM40 °FDrizzle. Low clouds.5 mph88%30.01 "Hg9 mi
6:00 AM40 °FOvercast.5 mph86%29.98 "Hg9 mi
5:00 AM40 °FOvercast.6 mph86%29.96 "Hg7 mi
Weather by CustomWeather, © 2015

See weather overviewHow to use our weather pages